Theta_e
313 313 313 313 313 313 312 309 306 305 305 305 304 303 305 307 308 309 311 316 317 319 318 317 320 319 319 321 326 325 325 327 330 336 332 332 334 332 333 333 335 337 337 336 335 331 334 332 332 334 337 334 335 334
312 313 313 313 313 312 310 308 306 305 305 305 304 303 303 306 308 309 312 312 313 315 317 315 316 316 316 317 319 320 322 325 330 330 333 336 338 336 338 337 337 341 340 337 336 338 335 334 332 332 330 332 333 334
311 312 313 313 312 310 308 306 305 305 305 304 303 303 302 304 306 307 309 310 313 315 315 316 319 317 320 318 318 319 319 321 321 318 329 332 335 336 340 338 338 338 336 339 335 334 333 334 334 332 330 331 331 330
311 312 312 312 310 308 306 305 305 305 305 303 302 303 303 302 303 305 307 309 313 315 318 317 317 315 315 317 318 320 318 317 317 319 323 328 330 331 335 335 333 335 336 336 336 335 333 333 333 331 333 333 332 340
311 312 311 310 308 306 306 305 305 305 303 303 303 303 303 303 303 303 307 309 313 314 318 316 314 318 317 319 320 320 320 321 322 323 324 327 328 328 329 333 333 333 333 336 335 336 333 335 332 332 332 334 332 333
311 311 309 307 306 306 305 305 305 304 303 303 303 303 303 303 303 308 317 314 314 313 316 317 316 318 319 322 324 321 324 323 324 323 323 323 322 326 331 332 331 332 331 331 333 333 332 331 331 331 332 332 331 335
310 309 307 306 305 305 305 304 303 302 303 303 302 303 303 303 304 308 313 314 313 312 317 318 319 321 321 323 325 325 324 326 324 324 324 324 324 330 330 332 331 331 333 333 331 330 332 332 334 332 331 331 331 333
308 307 306 305 305 305 303 303 302 302 302 302 303 303 303 305 306 308 314 312 309 311 315 318 319 322 323 325 324 325 326 325 326 327 327 328 329 332 332 330 332 331 333 331 332 330 332 330 329 330 330 333 331 335
307 306 305 306 305 303 302 301 302 302 302 303 305 308 308 310 314 317 315 314 312 315 319 319 321 322 320 321 325 329 328 329 328 330 328 330 331 333 332 332 332 331 332 331 330 329 328 330 331 330 334 333 333 333
306 305 306 305 303 301 301 302 301 303 306 310 310 313 318 316 315 314 314 316 313 313 316 318 318 321 321 324 328 329 329 330 332 331 327 332 331 330 333 332 331 333 331 330 332 331 330 333 331 332 331 332 332 330
305 306 304 303 301 301 301 301 301 306 310 311 314 317 312 314 316 318 321 320 319 319 318 319 323 325 322 327 328 327 329 329 332 332 331 333 333 334 330 327 327 326 327 333 329 329 329 329 332 331 332 331 330 329
306 304 302 301 301 300 300 301 302 305 308 306 305 308 311 315 318 320 323 324 324 324 326 325 325 323 324 325 329 328 329 329 331 331 333 335 333 329 326 325 327 328 326 333 334 334 332 331 330 329 329 329 329 331
305 302 301 301 300 300 301 302 302 303 304 309 310 314 317 317 317 322 322 325 325 323 324 325 322 321 324 326 327 328 328 331 329 333 335 334 332 331 332 332 332 331 332 333 334 333 331 331 331 332 332 330 328 330
301 301 301 300 301 303 304 304 302 304 307 313 316 312 317 319 318 322 324 325 324 323 323 320 320 324 325 326 327 326 328 330 331 334 334 332 330 330 331 332 334 331 333 333 334 334 333 330 328 328 328 329 330 332
302 301 300 301 305 306 305 305 303 305 309 314 315 316 316 317 318 319 320 321 321 321 321 321 322 322 323 325 325 327 329 331 333 333 332 332 331 332 332 332 332 327 331 328 332 334 331 328 327 327 328 330 331 335
301 302 306 306 304 304 305 304 306 308 312 315 315 316 317 318 318 318 320 323 319 321 321 320 321 324 324 324 327 327 331 334 331 331 329 330 332 331 331 331 333 331 334 333 334 331 334 330 329 330 331 330 329 333
300 305 308 305 306 307 304 308 311 312 313 315 315 315 316 317 318 318 318 318 318 320 320 320 320 323 321 326 328 324 328 328 326 327 328 328 330 330 331 331 333 332 334 334 333 331 331 333 333 331 333 330 327 327
304 308 306 305 305 309 309 307 311 314 315 314 315 316 318 317 317 318 317 317 319 320 319 321 319 319 324 323 325 322 325 325 325 327 328 328 330 330 330 330 329 329 334 331 333 333 332 335 330 329 329 328 327 325
306 306 307 305 305 307 311 313 312 314 314 315 315 315 316 316 317 317 317 317 319 320 319 320 321 323 324 324 324 323 323 324 326 327 325 325 325 327 326 326 327 330 328 327 329 330 331 331 330 329 328 326 331 333
301 302 302 304 304 309 312 314 314 315 315 316 315 316 317 317 316 317 317 318 318 320 319 319 319 320 321 325 323 322 322 322 323 325 325 323 322 323 324 324 329 327 325 325 328 329 328 330 327 326 324 327 324 323
305 307 306 304 308 308 310 313 316 316 316 317 316 316 316 316 316 317 318 319 320 319 319 318 317 318 326 326 325 325 325 327 327 324 325 325 323 322 322 323 327 328 329 327 326 328 329 330 327 329 328 329 322 328
308 307 309 308 310 312 313 312 314 313 313 314 315 316 317 318 318 318 319 322 321 320 319 322 325 326 326 325 326 325 326 326 326 327 325 324 323 322 323 325 326 326 328 325 322 327 326 329 327 330 324 326 327 326
306 308 310 311 312 311 311 311 314 314 315 314 315 316 318 321 321 322 323 323 323 322 322 323 324 322 325 325 326 326 326 327 328 327 327 325 323 323 326 327 326 325 325 325 323 325 325 328 325 328 329 328 328 328
308 309 312 314 313 312 312 314 315 314 314 315 316 319 319 323 323 325 325 324 323 322 323 324 323 326 326 325 327 327 326 326 326 326 327 328 329 328 328 326 324 321 321 326 325 325 326 325 324 322 323 328 327 325
310 308 308 306 312 315 315 314 314 314 315 315 317 318 319 322 325 324 325 324 324 323 323 322 323 322 322 324 325 325 326 327 326 327 325 325 327 326 326 324 322 322 324 324 324 324 319 318 318 319 317 317 317 320
309 310 309 313 313 313 313 314 314 316 316 317 319 321 323 324 322 324 325 324 322 321 321 320 319 319 319 323 324 324 326 325 325 325 324 323 326 323 324 324 326 322 320 320 319 320 320 319 317 318 319 318 318 319
310 311 311 312 312 313 313 314 315 314 314 315 318 320 323 323 324 322 321 321 321 319 318 317 316 316 318 321 322 322 324 324 325 324 322 320 320 319 320 319 319 317 318 317 317 317 317 315 314 314 316 315 315 315
310 311 312 312 312 312 312 312 312 312 314 317 319 320 321 320 322 321 322 319 317 317 317 316 316 318 323 323 323 324 325 324 324 319 321 321 320 319 318 318 318 317 318 317 315 315 314 314 314 314 314 314 314 315
310 310 310 311 311 312 312 312 312 312 314 315 316 317 317 317 318 319 316 315 315 315 316 316 318 320 319 319 319 319 318 320 318 319 321 320 321 317 315 315 315 315 315 315 315 314 314 314 314 314 314 315 316 315
309 309 310 311 311 312 312 312 313 313 313 313 315 316 317 317 316 315 314 314 315 317 317 318 322 320 320 321 320 318 318 315 314 314 314 316 316 315 314 314 314 314 314 314 315 314 315 315 316 315 315 317 316 317
309 311 311 311 312 312 312 312 312 313 313 313 314 314 315 316 314 313 317 318 319 319 319 321 322 320 321 316 319 319 315 312 311 311 312 313 314 314 314 314 314 314 314 314 315 315 314 314 315 316 315 315 315 315
311 311 311 312 312 313 314 314 313 313 313 313 315 314 315 316 321 325 322 321 321 322 322 321 321 319 316 314 313 312 310 309 308 308 309 309 310 312 313 313 314 314 313 313 313 314 314 314 314 314 314 313 312 312
312 312 312 311 313 314 315 314 314 314 315 316 320 321 322 323 321 322 321 321 321 322 322 321 320 318 316 314 313 310 308 308 309 309 309 308 308 309 309 310 311 311 312 312 313 313 313 313 313 312 311 311 311 310
Wind_Speed
22 18 17 16 14 11 12 12 13 15 16 16 16 16 14 15 18 20 12 8 6 3 14 9 13 15 12 7 7 9 8 7 4 3 3 3 3 5 6 7 6 4 3 2 1 10 7 5 8 7 6 5 4 6
17 17 16 13 10 11 11 12 12 14 15 16 16 15 15 13 15 16 8 18 15 9 10 36 42 43 34 29 11 5 9 12 2 3 4 3 4 4 7 4 8 2 4 3 5 3 2 1 3 5 7 10 4 5
17 15 13 9 9 11 11 11 12 14 15 16 15 14 15 14 13 12 12 16 19 6 11 8 6 25 13 28 28 7 5 6 3 6 3 4 3 2 3 3 5 9 9 4 6 3 5 8 2 5 9 14 7 4
13 12 10 10 10 10 11 11 13 14 15 15 14 14 15 16 15 15 11 16 13 5 4 6 24 24 26 23 18 26 17 17 11 3 4 5 1 3 3 2 4 4 3 3 6 9 9 7 7 5 17 18 5 10
11 8 9 10 10 10 11 12 14 14 14 14 15 16 17 17 17 19 15 14 10 3 3 8 33 16 20 18 18 17 14 8 3 3 4 5 3 2 3 3 3 5 5 4 5 9 4 7 5 6 9 19 7 20
7 8 8 9 9 11 12 14 14 14 14 15 16 16 15 16 16 10 2 2 1 2 3 5 11 8 21 8 7 11 7 4 3 3 3 4 8 3 3 3 2 4 4 2 4 3 5 11 11 11 12 16 8 12
8 8 8 9 10 12 13 13 14 15 16 17 18 17 16 14 12 6 4 1 1 7 2 4 5 5 12 6 3 3 9 2 3 4 6 7 8 2 2 6 5 8 2 2 5 4 6 10 6 13 14 18 13 13
8 8 8 10 11 12 12 13 15 16 17 17 19 18 17 17 15 10 4 6 14 4 3 4 5 5 6 2 3 1 3 2 2 3 2 3 3 2 4 5 5 2 4 4 4 7 7 5 5 10 13 4 8 2
8 8 9 10 11 11 13 14 15 17 18 18 17 15 8 3 4 1 1 2 8 3 3 3 4 4 5 6 2 1 2 3 4 3 5 3 3 4 6 8 3 4 2 8 9 7 7 10 7 8 6 5 7 8
8 9 9 9 10 11 12 14 16 17 14 10 8 4 2 3 5 2 1 2 1 1 3 4 4 8 8 5 3 3 2 3 2 3 5 2 6 7 3 3 5 7 8 9 5 4 11 5 5 5 6 6 4 4
8 8 8 9 9 11 12 13 13 15 6 5 4 2 10 4 4 4 3 3 4 4 4 4 3 5 5 3 3 2 2 2 2 2 2 1 3 2 2 4 6 6 9 11 7 9 13 7 7 10 6 8 10 11
7 8 8 8 10 11 12 12 10 8 7 8 11 11 6 3 2 4 3 3 4 2 1 3 4 4 3 3 2 2 3 2 4 1 1 2 3 4 3 3 6 11 13 14 8 8 8 6 10 8 5 7 20 28
7 7 8 9 10 10 10 10 8 10 13 3 2 3 2 1 1 4 2 2 2 1 3 3 6 3 1 2 3 2 3 4 3 1 3 1 4 6 7 6 14 8 7 12 12 10 14 8 12 11 6 5 14 23
6 7 9 10 10 9 8 9 8 6 3 2 3 4 3 3 4 3 2 3 1 4 5 4 4 2 2 3 2 3 4 2 2 3 1 2 5 9 8 9 7 9 10 12 12 10 9 12 7 14 11 7 6 23
6 8 10 9 7 8 11 10 5 2 3 3 3 3 6 6 4 6 3 4 5 5 4 5 2 2 2 3 2 4 3 4 1 1 2 4 6 6 7 7 8 2 8 11 12 12 12 12 13 17 23 30 29 15
7 6 4 7 10 10 7 3 2 4 4 4 5 6 7 6 5 4 3 3 4 4 1 2 2 3 2 3 3 3 8 3 3 3 3 4 5 6 7 9 8 8 6 4 2 10 10 10 12 19 25 23 10 8
4 2 4 8 5 7 1 1 3 5 4 3 5 7 8 4 5 6 5 5 4 1 2 1 2 2 2 3 1 4 3 3 7 7 2 5 6 7 8 10 10 11 6 7 9 16 16 13 16 13 6 4 3 6
2 3 3 6 5 4 3 5 4 4 5 6 7 7 4 3 5 6 4 5 0 3 2 2 3 2 2 4 2 3 3 4 7 6 3 5 6 6 8 9 15 17 9 15 15 10 16 12 6 11 17 12 11 2
5 7 6 6 6 3 3 4 6 4 6 7 6 4 4 6 4 6 6 9 5 4 2 3 3 3 3 3 3 5 6 4 4 2 3 6 9 9 12 16 16 12 11 12 11 10 13 19 17 12 20 30 14 5
8 7 8 7 4 3 3 3 5 4 4 4 4 5 4 5 7 6 7 3 3 2 2 3 4 3 5 4 6 6 5 5 5 4 5 5 11 15 13 14 6 8 11 13 19 21 19 15 9 2 6 18 16 14
5 3 4 4 4 9 4 3 3 3 4 4 6 6 5 6 6 7 8 3 3 4 3 6 7 6 3 3 5 2 3 3 4 3 4 8 12 16 17 15 15 13 6 10 10 18 23 9 13 12 12 18 7 18
2 2 2 7 4 4 4 9 3 5 4 7 9 8 5 6 7 6 5 1 3 5 6 3 3 4 6 7 8 11 11 10 12 12 14 15 6 7 6 2 8 3 5 4 8 5 14 11 9 13 14 18 7 4
3 3 4 5 4 2 5 7 4 3 3 4 4 3 3 2 2 0 0 1 2 3 1 1 2 6 6 11 11 12 11 9 5 8 13 11 12 14 7 15 14 12 4 9 14 17 17 10 13 12 16 11 5 1
5 3 3 3 5 4 4 4 3 2 3 6 3 5 5 2 3 2 3 3 2 2 1 1 4 3 4 5 3 3 9 9 7 11 9 8 3 11 13 9 14 11 8 5 10 17 22 7 9 13 15 7 5 5
2 4 3 5 4 4 4 3 3 3 4 9 8 10 3 3 2 2 0 1 2 3 2 5 2 3 4 3 3 4 7 10 11 5 16 18 17 4 12 2 4 3 5 4 10 4 11 9 9 8 9 6 7 8
4 5 6 4 3 3 3 2 2 2 7 11 4 2 2 2 3 1 3 2 1 1 1 2 4 6 7 5 3 3 8 11 11 6 6 9 10 2 1 2 0 9 17 11 17 13 9 7 4 5 3 5 3 3
4 5 6 4 3 2 4 3 3 4 3 4 3 3 2 2 4 2 1 3 0 6 8 10 12 12 11 8 4 7 9 11 11 6 4 8 5 7 6 6 5 7 11 13 15 15 16 17 17 17 16 16 16 15
6 4 4 4 4 2 4 3 4 5 4 2 3 3 5 2 2 2 1 3 6 10 12 13 18 18 7 6 5 5 7 8 11 10 3 2 3 2 1 1 1 4 1 2 6 8 9 9 10 12 12 11 12 14
7 5 5 8 5 2 3 3 5 4 5 6 6 8 7 5 5 3 3 8 13 15 13 11 10 3 5 7 4 4 5 4 9 9 6 2 2 10 15 16 16 15 12 9 1 5 7 10 11 8 8 11 12 17
10 7 6 6 7 6 6 6 7 9 8 5 5 6 6 6 14 20 22 16 11 7 8 11 1 2 4 5 2 3 8 16 17 12 6 7 9 16 15 12 12 11 12 13 8 8 13 15 17 14 8 18 22 21
3 2 4 6 9 9 10 10 11 6 6 7 6 6 8 5 9 10 6 5 5 8 9 7 8 12 11 9 4 8 9 15 14 15 15 16 16 12 16 13 12 12 10 11 12 16 15 17 19 23 24 22 22 21
6 9 7 10 8 5 5 5 5 3 2 2 2 2 2 2 3 0 3 5 6 7 9 11 4 8 18 18 18 16 12 10 12 14 15 14 13 15 15 17 16 15 12 16 18 20 24 20 18 19 18 17 17 16
4 6 5 4 3 2 3 2 2 3 2 2 3 1 2 2 3 2 3 9 10 7 8 7 5 13 14 14 15 17 18 17 15 16 18 19 17 15 13 14 17 18 18 15 18 20 18 17 15 16 16 16 17 18
Wind_Direction
325 329 328 326 324 320 321 326 329 332 336 339 341 342 343 348 350 354 313 346 349 282 287 260 318 308 306 297 289 333 329 13 336 1 249 248 275 273 279 268 260 217 176 255 285 219 233 335 60 160 289 339 320 1
321 325 322 327 327 319 322 325 328 330 331 334 335 337 339 336 341 351 299 324 331 278 276 294 284 277 258 251 270 287 298 311 183 39 346 348 315 318 319 293 23 39 340 229 169 217 244 326 98 332 316 300 311 272
315 313 317 318 318 319 321 324 325 327 328 330 332 334 334 332 327 332 309 306 316 287 295 273 239 342 319 228 232 240 260 283 308 355 298 255 280 113 300 9 339 351 13 358 6 317 293 102 311 333 300 267 259 338
312 317 313 313 316 317 318 320 321 323 325 325 326 326 329 330 324 317 302 302 313 288 296 292 328 319 301 292 278 217 232 255 263 271 281 281 293 308 215 179 162 191 347 2 294 286 292 287 110 186 261 244 200 46
306 300 307 308 313 314 316 318 319 321 321 323 323 321 321 323 324 316 293 286 274 240 298 296 301 297 310 286 248 259 248 241 230 263 263 272 258 326 274 242 224 175 177 173 199 267 225 261 285 311 335 321 49 105
291 290 298 307 310 312 314 315 316 316 316 319 321 322 320 321 327 329 161 93 58 55 298 302 332 288 301 308 253 233 225 219 215 202 256 257 255 231 272 278 304 160 203 203 234 195 263 300 312 293 308 295 322 143
292 294 301 304 307 311 313 315 316 316 314 314 316 317 314 313 312 261 293 151 271 344 261 292 286 263 244 327 359 330 318 183 197 231 240 250 266 232 245 257 269 272 203 195 248 266 259 252 264 314 331 315 344 137
291 293 299 305 310 313 315 317 317 315 316 313 313 312 307 304 287 277 289 262 229 255 269 280 278 294 4 51 308 37 315 304 239 234 228 255 271 162 241 234 263 360 151 165 238 226 266 303 301 294 305 292 5 199
287 291 301 305 311 314 317 320 321 320 316 314 312 308 299 245 250 327 209 84 163 278 294 254 296 308 316 340 337 53 350 29 313 258 240 240 189 224 229 244 233 234 163 192 217 233 217 254 301 323 280 45 44 6
284 293 297 304 310 316 320 323 325 324 324 317 309 223 231 217 257 276 106 176 149 226 245 265 269 283 303 324 335 327 173 214 254 262 332 251 245 248 38 20 19 344 268 165 204 263 265 226 239 331 274 115 87 353
283 287 296 303 311 316 321 326 333 339 360 337 295 334 334 311 247 208 239 211 173 217 207 244 285 302 303 308 288 259 302 239 269 272 262 288 286 11 47 318 334 331 271 268 212 214 227 229 168 152 147 121 81 261
275 286 292 302 311 317 320 324 327 335 338 316 301 300 279 250 240 275 249 219 208 325 288 293 312 302 288 349 303 301 264 270 254 94 164 264 3 331 333 295 314 274 298 269 255 257 167 155 134 127 137 135 177 229
272 282 295 305 312 315 316 320 311 319 321 287 250 251 217 239 340 234 269 344 1 285 304 285 309 296 350 353 273 315 286 240 319 290 305 266 292 332 320 321 293 207 303 358 332 224 188 162 126 129 156 161 211 262
269 289 299 304 310 311 323 327 309 321 285 252 242 292 233 223 234 275 356 319 189 237 278 315 312 360 298 273 341 265 246 293 270 207 281 295 314 313 327 329 349 2 11 333 331 298 156 152 125 67 13 187 224 274
281 300 305 301 310 308 296 303 309 266 266 260 242 243 232 251 299 334 39 359 333 342 2 313 348 4 305 301 254 283 259 243 39 63 289 335 324 343 354 334 327 333 55 311 303 326 150 161 143 140 209 218 244 204
305 317 287 324 317 317 301 218 213 232 256 248 235 244 277 303 304 308 232 211 221 222 128 57 6 308 294 319 282 272 322 6 37 306 331 342 354 350 334 326 327 323 338 11 235 338 348 181 178 192 203 211 231 209
297 261 304 345 4 3 119 202 240 222 252 241 243 245 259 279 314 302 298 303 145 352 8 111 31 308 274 244 198 346 338 316 299 317 42 356 338 335 328 325 318 319 307 332 1 346 348 325 353 198 169 172 304 273
241 303 321 346 332 325 242 217 247 247 245 252 265 279 310 294 311 317 329 295 4 148 196 216 124 305 273 298 352 252 287 271 289 297 347 316 326 319 320 313 318 316 358 20 2 313 311 49 76 24 18 313 191 192
228 271 290 333 345 303 260 221 234 261 246 261 269 262 285 289 278 276 281 281 244 173 148 178 180 209 244 199 243 253 257 249 281 309 297 306 303 303 310 313 311 338 32 16 356 4 360 53 24 54 63 23 348 48
274 274 266 270 289 273 259 245 213 257 277 307 304 299 305 277 274 271 285 264 24 1 268 229 243 257 255 223 194 231 245 259 294 314 313 312 317 317 315 307 329 48 23 10 11 8 10 75 103 167 12 21 3 358
311 282 237 227 238 221 282 281 249 245 289 279 281 310 287 288 291 281 266 250 172 185 247 265 248 259 317 3 143 219 308 326 319 293 299 315 314 312 303 329 95 76 58 36 19 346 343 126 119 89 137 172 241 293
295 243 258 208 261 233 247 242 252 309 278 262 273 268 274 268 273 272 284 156 158 266 240 283 4 357 338 322 317 318 311 302 286 290 289 284 289 301 300 300 114 74 54 58 168 301 318 358 49 151 124 149 158 266
323 232 237 215 241 251 259 267 233 244 275 298 281 275 259 292 272 39 216 240 301 296 40 83 8 314 310 312 318 328 332 312 285 276 277 272 284 304 30 79 77 83 78 8 352 321 321 329 24 64 97 110 152 117
260 256 242 241 206 249 249 218 227 254 254 251 289 305 289 253 244 218 246 165 239 294 308 289 334 319 308 303 315 317 334 1 332 311 344 344 344 45 70 86 90 78 77 50 329 297 294 26 51 47 65 85 54 51
259 254 179 254 252 238 261 232 207 232 260 276 286 285 281 357 286 263 39 159 181 203 270 308 257 300 308 295 342 310 12 3 345 9 37 23 347 17 97 116 184 129 53 45 317 108 44 30 41 46 89 60 40 12
234 223 190 240 225 240 270 287 284 297 300 298 263 336 5 271 257 329 39 359 88 147 267 10 14 341 325 329 335 346 352 346 347 57 112 83 272 208 22 25 11 10 15 30 29 35 37 23 14 327 163 172 132 359
243 248 205 243 277 276 271 282 300 302 294 277 313 326 248 278 52 330 266 285 308 2 354 6 333 311 300 314 343 326 321 317 313 283 16 16 73 81 85 67 47 357 23 29 22 39 33 12 356 351 2 6 13 14
235 281 283 206 215 229 273 274 275 269 233 257 340 310 319 17 26 198 204 247 328 330 323 311 302 302 322 308 297 298 307 315 326 338 308 153 76 54 67 126 296 338 35 32 30 42 33 8 6 9 9 5 0 360
226 221 227 260 263 236 245 253 251 258 290 312 298 287 282 289 327 25 8 326 313 299 284 287 282 314 345 359 53 60 25 357 356 351 348 11 41 51 45 32 21 13 31 4 329 73 33 354 325 313 341 348 24 26
247 259 244 238 249 244 232 234 269 292 290 292 320 318 306 299 306 307 299 293 279 265 244 249 116 216 258 304 265 96 53 40 43 27 357 14 55 46 34 13 4 23 24 358 53 83 35 7 30 46 29 38 37 32
239 241 242 244 259 255 258 259 277 317 342 322 304 271 279 297 296 279 248 215 208 181 189 207 239 236 257 358 63 151 77 50 35 32 37 35 38 33 3 8 22 33 11 5 33 57 39 23 39 49 48 42 35 31
215 210 227 248 261 266 42 11 358 309 290 259 253 223 249 236 259 235 170 152 164 177 195 196 203 105 101 89 80 79 81 70 58 54 55 53 44 32 31 25 17 23 36 40 45 49 62 56 47 43 42 39 30 26
277 276 274 284 319 333 38 6 291 278 231 281 302 243 268 284 97 105 197 190 193 186 198 207 136 122 119 113 102 100 91 85 75 67 63 59 56 56 50 34 32 30 38 46 55 60 48 43 51 51 45 37 26 15